This demonstration page uses our WeatherBlox Daily Observations layout. Learn more.

39.01783, -85.05884

Hourly Observations for January 11, 2019

Temp ( °F °C ) Dew Point ( °F °C ) Humidity (%) Winds ( mph kmh ) Pressure ( in mb ) Visibility ( mi km ) Precip ( " mm )
12:52 am 00:52 Cloudy 27 -2.8 17 -8.3 66 66 NNW 5 7 30.36 1028 10 16.09344 0 0
1:52 am 01:52 Cloudy 26 -3.3 17 -8.3 69 69 NE 7 11 30.36 1028 10 16.09344 0 0
2:52 am 02:52 Cloudy 26 -3.3 17 -8.3 69 69 NNE 6 9 30.36 1028 10 16.09344 0 0
3:52 am 03:52 Cloudy 26 -3.3 17 -8.3 69 69 E 3 6 30.36 1028 10 16.09344 0 0
4:52 am 04:52 Cloudy 26 -3.3 17 -8.3 69 69 Calm 30.36 1028 10 16.09344 0 0
5:52 am 05:52 Cloudy 26 -3.3 18 -7.8 71 71 Calm 30.39 1029 10 16.09344 0 0
6:52 am 06:52 Cloudy 26 -3.3 17 -8.3 69 69 E 5 7 30.39 1029 10 16.09344 0 0
7:52 am 07:52 Cloudy 26 -3.3 17 -8.3 69 69 E 3 6 30.39 1029 9 14.484096 0 0
8:52 am 08:52 Cloudy 26 -3.3 17 -8.3 69 69 SE 5 7 30.42 1030 8 12.874752 0 0
9:52 am 09:52 Cloudy 27 -2.8 18 -7.8 69 69 E 10 17 30.42 1030 8 12.874752 0 0
10:52 am 10:52 Cloudy 28 -2.2 18 -7.8 66 66 ENE 3 6 30.42 1030 9 14.484096 0 0
11:52 am 11:52 Cloudy 29 -1.7 19 -7.2 66 66 SSE 7 11 30.39 1029 9 14.484096 0 0
12:52 pm 12:52 Mostly Cloudy 31 -0.6 19 -7.2 61 61 ESE 7 11 30.36 1028 9 14.484096 0 0
1:52 pm 13:52 Partly Cloudy 33 0.6 19 -7.2 56 56 E 8 13 30.36 1028 10 16.09344 0 0
2:52 pm 14:52 Cloudy 33 0.6 19 -7.2 56 56 E 8 13 30.33 1027 10 16.09344 0 0
3:52 pm 15:52 Cloudy 33 0.6 19 -7.2 56 56 E 7 11 30.33 1027 9 14.484096 0 0
4:52 pm 16:52 Cloudy 32 0 19 -7.2 59 59 ESE 6 9 30.33 1027 9 14.484096 0 0
5:52 pm 17:52 Cloudy 32 0 19 -7.2 59 59 E 7 11 30.33 1027 10 16.09344 0 0
6:52 pm 18:52 Cloudy 31 -0.6 20 -6.7 64 64 E 7 11 30.33 1027 10 16.09344 0 0
7:52 pm 19:52 Cloudy 31 -0.6 20 -6.7 64 64 E 9 15 30.33 1027 10 16.09344 0 0
8:52 pm 20:52 Cloudy 31 -0.6 20 -6.7 64 64 E 7 11 30.33 1027 10 16.09344 0 0
9:52 pm 21:52 Cloudy 31 -0.6 20 -6.7 64 64 E 8 13 30.33 1027 10 16.09344 0 0
10:52 pm 22:52 Cloudy 32 0 19 -7.2 59 59 ESE 6 9 30.33 1027 10 16.09344 0 0
11:52 pm 23:52 Cloudy 31 -0.6 20 -6.7 64 64 SE 7 11 30.33 1027 10 16.09344 0 0

Powered by AerisWeather